Regional Weather Roundup
Issued by NWS

Home | Current Version | Previous Version | Graphics & Text | Print | Product List | Glossary On
Versions: 1 2 3 4 5 6 7 8 9 10 11 12 13 14 15 16 17 18 19 20 21 22 23 24 25 26 27 28 29 30 31 32 33 34 35 36 37 38 39 40 41 42 43 44 45 46 47 48 49 50
000
ASUS44 KMEG 160710
RWRTN
TENNESSEE HOURLY STATE WEATHER ROUNDUP
NATIONAL WEATHER SERVICE MEMPHIS TN
100 AM CST MON JAN 16 2017

TNZ002-004-019-021-049-052-054-088>092-160800-
WEST TENNESSEE

CITY           SKY/WX    TMP DP  RH WIND       PRES   REMARKS
MEMPHIS INTL   PTCLDY    51  51 100 E3        30.14F
NWS MEMPHIS      N/A     50 N/A N/A MISG        N/A
JACKSON        CLOUDY    50  50 100 E5        30.18S FOG
DYERSBURG      CLOUDY    46  45  93 SE6       30.17F
UNION CITY     CLOUDY   N/A N/A N/A CALM      30.18S
PARIS          CLOUDY    43  43 100 CALM      30.20S VSB 1/2
HUNTINGDON     CLOUDY    48  46  93 E6        30.18S FOG
$$

TNZ008-025-027-028-033-062-065-066-160800-
NORTH MIDDLE TENNESSEE

CITY           SKY/WX    TMP DP  RH WIND       PRES   REMARKS
NASHVILLE      FOG       50  49  96 CALM      30.23S VSB 1/4
PORTLAND       FOG       46  45  93 CALM      30.22S VSB 1/4
CLARKSVILLE    CLOUDY    45  44  97 E3        30.23R FOG
SMYRNA         MOCLDY    47  46  97 N3        30.23S
GALLATIN       CLOUDY    48  48 100 CALM      30.25S FOG
CROSSVILLE     FOG       50  49  96 CALM      30.25F VSB 1
$$

TNZ061-075-076-078-094-096-097-160800-
SOUTH MIDDLE TENNESSEE

CITY           SKY/WX    TMP DP  RH WIND       PRES   REMARKS
FAYETTEVILLE   CLOUDY    55  54  94 CALM      30.21S
TULLAHOMA      CLOUDY    46  46 100 CALM      30.22F VSB 1/4
WINCHESTER     PTCLDY    48  48 100 CALM      30.22S
MCMINNVILLE    PTCLDY    52  52 100 CALM      30.22S
COLUMBIA       PTCLDY   N/A N/A N/A CALM      30.19S
SHELBYVILLE    CLEAR     48  48 100 CALM      30.22S
$$

TNZ017-018-042-046-047-160800-
NORTHEAST TENNESSEE

CITY           SKY/WX    TMP DP  RH WIND       PRES   REMARKS
TRI CITIES     CLOUDY    55  54  96 CALM      30.27S FOG
ELIZABETHTON   CLOUDY    54  54 100 CALM      30.27S FOG
$$

TNZ012-013-036-069-073-074-160800-
CENTRAL EAST TENNESSEE

CITY           SKY/WX    TMP DP  RH WIND       PRES   REMARKS
KNOXVILLE      FOG       55  54  96 NE6       30.24R VSB 1/16
OAK RIDGE      CLOUDY    54  52  93 CALM      30.26F
GATLINBURG     CLOUDY    52  52 100 NE3       30.26R VSB 1/4
MORRISTOWN     FOG       55  55 100 E3        30.26R VSB 0
JACKSBORO      CLOUDY    52  52 100 CALM      30.28F FOG
$$

TNZ083-085-099-160800-
SOUTHEAST TENNESSEE

CITY           SKY/WX    TMP DP  RH WIND       PRES   REMARKS
CHATTANOOGA    PTCLDY    52  49  89 CALM      30.23F
$$

SKY/WX REPORTED AS FAIR MEANS FEW OR NO CLOUDS BELOW
12 THOUSAND FEET.





USA.gov is the U.S. government's official web portal to all federal, state and local government web resources and services.